Weather History for KLIT - October, 2013

Change the Weather History Date:

Monday, October 14, 2013

  Actual Average Record
Temperature  
Mean Temperature 68 °F 64 °F  
Max Temperature 77 °F 76 °F 92 °F (1963)
Min Temperature 58 °F 53 °F 37 °F (1986)
Degree Days  
Heating Degree Days 0 3  
Month to date heating degree days 7 31  
Since 1 July heating degree days 7 42  
Cooling Degree Days 3 2  
Month to date cooling degree days 79 53  
Year to date cooling degree days 2189 2166  
Growing Degree Days 17 (Base 50)    
Moisture  
Dew Point 56 °F    
Average Humidity 69    
Maximum Humidity 87    
Minimum Humidity 50    
Precipitation  
Precipitation T in 0.16 in 1.30 in (1892)
Month to date precipitation 1.25 2.01  
Year to date precipitation 39.06 36.60  
Snow  
Snow 0.00 in 0.00 in - ()
Month to date snowfall 0.0 0.0  
Since 1 July snowfall 0.0 0.0  
Since 1 September snowfall 0.0 0.0  
Snow Depth 0.00 in    
Sea Level Pressure  
Sea Level Pressure 30.15 in    
Wind  
Wind Speed 4 mph (ENE)    
Max Wind Speed 9 mph    
Max Gust Speed 12 mph    
Visibility 10 miles    
Events Rain    
T = Trace of Precipitation, MM = Missing Value Source: NWS Daily Summary

Daily Weather History Graph

Daily Weather History Graph

Search for Another Location

Airport or City:

Trip Planner

Search our weather history database for the weather conditions in past years. The results will help you decide how hot, cold, wet, or windy it might be!

Date:

Astronomy

Oct. 14, 2013 Rise Set
Actual Time 7:14 AM CDT 6:35 PM CDT
Civil Twilight 6:48 AM CDT 7:00 PM CDT
Nautical Twilight 6:19 AM CDT 7:29 PM CDT
Astronomical Twilight 5:50 AM CDT 7:58 PM CDT
Moon 3:55 PM CDT (10/14) 2:41 AM CDT (10/14)
Length of Visible Light 12h 11m
Length of Day
11h 21m
Waxing Gibbous, 79% of the Moon is Illuminated
Oct 14
Waxing Gibbous
Oct 18
Full
Oct 26
Last Quarter
Nov 3
New
Nov 9
First Quarter

Hourly Weather History & Observations

Time (CDT) Temp. Dew Point Humidity Pressure Visibility Wind Dir Wind Speed Gust Speed Precip Events Conditions
12:53 AM 62.1 °F 50.0 °F 65% 30.24 in 10.0 mi NE 6.9 mph - N/A   Mostly Cloudy
1:53 AM 61.0 °F 48.9 °F 64% 30.23 in 10.0 mi NE 6.9 mph - N/A   Mostly Cloudy
2:53 AM 60.1 °F 48.9 °F 67% 30.22 in 10.0 mi NE 6.9 mph - N/A   Mostly Cloudy
3:53 AM 57.9 °F 48.9 °F 72% 30.21 in 10.0 mi NE 5.8 mph - N/A   Mostly Cloudy
4:53 AM 59.0 °F 48.9 °F 69% 30.20 in 10.0 mi NE 5.8 mph - N/A   Overcast
5:53 AM 60.1 °F 48.9 °F 67% 30.20 in 10.0 mi NE 5.8 mph - N/A   Overcast
6:53 AM 57.9 °F 48.9 °F 72% 30.20 in 10.0 mi ENE 4.6 mph - N/A   Overcast
7:53 AM 60.1 °F 50.0 °F 69% 30.21 in 10.0 mi NE 4.6 mph - N/A   Overcast
8:53 AM 62.1 °F 51.1 °F 67% 30.22 in 10.0 mi NE 3.5 mph - N/A   Overcast
9:53 AM 63.0 °F 51.1 °F 65% 30.22 in 10.0 mi NE 5.8 mph - N/A   Overcast
10:53 AM 64.9 °F 52.0 °F 63% 30.22 in 10.0 mi NE 3.5 mph - N/A   Overcast
11:53 AM 69.1 °F 54.0 °F 58% 30.20 in 10.0 mi ENE 4.6 mph - N/A   Mostly Cloudy
12:53 PM 72.0 °F 55.9 °F 57% 30.17 in 10.0 mi Calm Calm - N/A   Mostly Cloudy
1:53 PM 77.0 °F 57.9 °F 52% 30.12 in 10.0 mi ESE 9.2 mph - N/A   Mostly Cloudy
2:53 PM 75.9 °F 59.0 °F 56% 30.09 in 10.0 mi ESE 5.8 mph - N/A   Overcast
3:53 PM 75.9 °F 59.0 °F 56% 30.06 in 10.0 mi East 5.8 mph - N/A   Overcast
4:53 PM 75.0 °F 62.1 °F 64% 30.06 in 10.0 mi NE 3.5 mph - N/A   Overcast
5:53 PM 73.0 °F 63.0 °F 71% 30.05 in 10.0 mi NE 5.8 mph - N/A   Overcast
6:53 PM 71.1 °F 63.0 °F 75% 30.06 in 10.0 mi NE 5.8 mph - 0.00 in Rain Light Rain
7:53 PM 71.1 °F 64.0 °F 78% 30.06 in 10.0 mi Calm Calm - 0.00 in   Overcast
8:53 PM 69.1 °F 64.0 °F 84% 30.07 in 10.0 mi ENE 3.5 mph - 0.00 in   Mostly Cloudy
9:53 PM 68.0 °F 64.0 °F 87% 30.07 in 10.0 mi ENE 3.5 mph - 0.00 in   Overcast
10:53 PM 69.1 °F 63.0 °F 81% 30.07 in 10.0 mi Calm Calm - N/A   Overcast
11:53 PM 68.0 °F 63.0 °F 84% 30.04 in 10.0 mi ENE 3.5 mph - N/A   Overcast